Regional Weather Roundup
Issued by NWS Cleveland, OH

Home | Current Version | Previous Version | Text Only | Print | Product List | Glossary Off
Versions: 1 2 3 4 5 6 7 8 9 10 11 12 13 14 15 16 17 18 19 20 21 22 23 24 25 26 27 28 29 30 31 32 33 34 35 36 37 38 39 40 41 42 43 44 45 46 47 48 49 50

998
ASUS41 KCLE 201702
RWRCLE
OHIO REGIONAL WEATHER ROUNDUP
NATIONAL WEATHER SERVICE CLEVELAND, OH
1200 PM EST MON FEB 20 2017

NOTE: "FAIR" INDICATES FEW OR NO CLOUDS BELOW 12,000 FEET WITH NO
SIGNIFICANT WEATHER AND/OR OBSTRUCTIONS TO VISIBILITY.

OHZ001>008-015>018-024>027-034-035-043-044-201800-
   NORTHWEST OHIO

CITY           SKY/WX    TMP DP  RH WIND       PRES   REMARKS
DEFIANCE       NOT AVBL
FINDLAY        CLOUDY    57  40  52 E9        30.25R
TOLEDO EXPRESS SUNNY     51  36  56 E12       30.27S
TOLEDO EXEC    SUNNY     52  36  54 E13       30.28F
LIMA           SUNNY     61  42  49 SE7       30.23F
$$

OHZ009>014-019>023-028>033-038-089-201800-
   NORTHEAST OHIO

CITY           SKY/WX    TMP DP  RH WIND       PRES   REMARKS
CLE-HOPKINS    PTSUNNY   57  32  38 E5        30.30F
CLE-LAKEFRONT  MOSUNNY   40  34  79 NE9       30.28F
CUY CO. ARPT   MOSUNNY   57  32  38 E7        30.28F
LORAIN-ELYRIA  SUNNY     55  34  45 SE7       30.28F
ASHTABULA      SUNNY     49  33  54 E9        30.29F
AKRON-CANTON   MOSUNNY   55  34  45 SE8       30.26F
WOOSTER        SUNNY     54  38  54 E7        30.27F
MANSFIELD      SUNNY     57  37  47 E9        30.26S
YOUNGSTOWN     MOSUNNY   51  31  46 E6        30.28F
$$

OHZ042-051>053-060>062-070>072-077>081-201800-
  SOUTHWEST OHIO

CITY           SKY/WX    TMP DP  RH WIND       PRES   REMARKS
CINC-COVINGTON CLOUDY    56  48  74 SE9       30.21F
CINC-LUNKEN    CLOUDY    49  47  93 CALM      30.24F FOG
HAMILTON       CLOUDY    54  50  86 CALM      30.24F FOG
DAYTON         PTSUNNY   48  46  93 E3        30.25F FOG
WRIGHT-PAT AFB PTSUNNY   50  50 100 CALM      30.24F FOG
DAYTON GENERAL PTSUNNY   55  48  77 E7        30.23S
WILMINGTON     MOSUNNY   56  48  74 SE10      30.24S
$$

OHZ036-037-039>041-045>050-054>059-063>069-073>076-082>088-201800-
  CENTRAL AND SOUTHEAST OHIO

CITY           SKY/WX    TMP DP  RH WIND       PRES   REMARKS
COLUMBUS       FOG       46  44  93 CALM      30.27S VSB 1/4
OSU AIRPORT    CLOUDY    44  44 100 S5        30.27R FOG
BOLTON FIELD   CLOUDY    46  46 100 SE3       30.27S FOG
RICKENBACK AFB FOG       45  45 100 CALM      30.27S VSB 1/4
NEWARK         CLOUDY    46  45  96 CALM      30.27S FOG
MARION         MOSUNNY   57  40  52 S6        30.26R
LANCASTER      PTSUNNY   51  49  92 CALM      30.28R FOG
ZANESVILLE     CLOUDY    46  45  96 CALM      30.28S FOG
NEW PHILLY     NOT AVBL
$$




USA.gov is the U.S. government's official web portal to all federal, state and local government web resources and services.